Location: Newark
(25.0000°N, 73.5000°E)
Time: 00:40:48
(UTC+00:00)

Transit 2A - Visible Passes

Search period start: 31 July 2021 00:00
Search period end: 10 August 2021 00:00
Orbit: 598 x 960 km, 66.7° (Epoch: 30 July)

Date Brightness Start Highest point End Pass type
(mag) Time Alt. Az. Time Alt. Az. Time Alt. Az.
01 Aug 7.8 23:34:00 10° SSE 23:37:22 22° ESE 23:40:47 10° NE visible
02 Aug 8.3 23:01:23 10° SE 23:03:20 13° ESE 23:05:18 10° ENE visible
04 Aug 5.7 00:07:35 10° SW 00:11:49 56° WNW 00:16:11 10° NNE visible
04 Aug 5.6 23:33:39 12° SSW 23:37:39 81° ESE 23:42:05 10° NNE visible
05 Aug 6.5 23:01:06 22° S 23:03:32 44° ESE 23:07:44 10° NE visible
06 Aug 7.3 22:28:27 23° SE 22:29:28 25° ESE 22:33:04 10° NE visible
07 Aug 7.2 00:09:31 10° WSW 00:12:29 18° WNW 00:15:32 10° NNW visible
07 Aug 8.1 21:55:44 14° E 21:55:44 14° E 21:57:48 10° ENE visible
07 Aug 6.6 23:36:15 21° WSW 23:38:11 29° WNW 23:42:05 10° N visible
08 Aug 5.7 23:03:28 48° W 23:03:56 50° WNW 23:08:17 10° NNE visible
09 Aug 6.0 22:30:37 57° NNE 22:30:37 57° NNE 22:34:13 10° NNE visible
